This is the latest recevied weather packets stored in our database for station/object SP6PWT-13. If no packets are shown the sender has not sent any weather packets the latest 10 day(s).
| Time | Temp. | Humidity | Pressure | Rain* | Wind** | Luminosity | Snow |
|---|---|---|---|---|---|---|---|
| 1777482401 | 8.89° C | 36% | 1012.9 hPa | 0 mm | - | 26 W/m² | - |
| 1777482100 | 8.89° C | 36% | 1013 hPa | 0 mm | - | 28 W/m² | - |
| 1777481799 | 9.44° C | 36% | 1012.7 hPa | 0 mm | - | 28 W/m² | - |
| 1777481499 | 9.44° C | 36% | 1012.7 hPa | 0 mm | - | 48 W/m² | - |
| 1777481197 | 9.44° C | 35% | 1012.7 hPa | 0 mm | - | 66 W/m² | - |
| 1777480898 | 10° C | 34% | 1012.6 hPa | 0 mm | - | 81 W/m² | - |
| 1777480597 | 10° C | 33% | 1012.5 hPa | 0 mm | - | 105 W/m² | - |
| 1777480296 | 9.44° C | 33% | 1012.5 hPa | 0 mm | - | 125 W/m² | - |
| 1777479995 | 9.44° C | 32% | 1012.6 hPa | 0 mm | - | 116 W/m² | - |
| 1777479695 | 9.44° C | 32% | 1012.6 hPa | 0 mm | - | 113 W/m² | - |
| 1777479395 | 9.44° C | 32% | 1012.7 hPa | 0 mm | - | 115 W/m² | - |
| 1777479095 | 9.44° C | 32% | 1012.6 hPa | 0 mm | - | 78 W/m² | - |
| 1777478794 | 9.44° C | 33% | 1012.4 hPa | 0 mm | - | 146 W/m² | - |
| 1777478494 | 9.44° C | 33% | 1012.6 hPa | 0 mm | - | 154 W/m² | - |
| 1777478193 | 10° C | 33% | 1012.5 hPa | 0 mm | - | 68 W/m² | - |
| 1777477893 | 10° C | 32% | 1012.4 hPa | 0 mm | - | 142 W/m² | - |
| 1777477593 | 10° C | 31% | 1012.2 hPa | 0 mm | - | 225 W/m² | - |
| 1777477292 | 9.44° C | 30% | 1012.6 hPa | 0 mm | - | 206 W/m² | - |
| 1777476991 | 9.44° C | 29% | 1012.4 hPa | 0 mm | - | 207 W/m² | - |
| 1777476691 | 9.44° C | 30% | 1012.4 hPa | 0 mm | - | 65 W/m² | - |
| 1777476390 | 9.44° C | 32% | 1012.4 hPa | 0 mm | - | 231 W/m² | - |
| 1777476088 | 9.44° C | 31% | 1012.4 hPa | 0 mm | - | 70 W/m² | - |
| 1777475788 | 10° C | 30% | 1012.5 hPa | 0 mm | - | 68 W/m² | - |
| 1777475488 | 9.44° C | 30% | 1012.5 hPa | 0 mm | - | 263 W/m² | - |
| 1777475188 | 10° C | 29% | 1012.5 hPa | 0 mm | - | 286 W/m² | - |
* Rain latest hour (hover to see other rain measurements)
** Current wind speed in m/s (hover to see current wind gust speed)